Location: *
(45.4590°N, 16.3650°E)
Time: 07:04:12
(UTC+00:00)

STARLINK-1110 - Pass Details

Date: 17 January 2020
Orbit: 348 x 351 km, 53.0° (Epoch: 25 February)

Event Time Altitude Azimuth Distance (km) Brightness Sun altitude
Rises 17:30:36 0° 242° (WSW) 2,151 8.0 -19.1°
Reaches altitude 10° 17:32:36 10° 245° (WSW) 1,311 6.7 -19.4°
Enters shadow 17:35:13 62° 286° (WNW) 399 3.1 -19.9°
